Location: ??????????
(54.8537°N, 38.8755°E)
Time: 21:34:12
(UTC+00:00)

Tiros 1 despin weight - Pass Details

Date: 22 September 2024
Orbit: 572 x 613 km, 48.2° (Epoch: 13 October)

Event Time Altitude Azimuth Distance (km) Brightness Sun altitude
Exits shadow 01:39:52 21° 238° (WSW) 1,386 ? -13.6°
Maximum altitude 01:42:03 32° 191° (S) 1,049 ? -13.3°
Drops below altitude 10° 01:46:07 10° 128° (SE) 1,974 ? -12.7°
Sets 01:48:35 0° 118° (ESE) 2,878 ? -12.4°
